SL-16 DEB, 22608

Orbit data source: Space-Track

SL-16 DEB, 22608 is space debris in LEO originally from a launch on Fri, 26 Mar 1993 UTC launched from the Tyuratam Missile And Space Complex (TTMTR). Debris objects in space refer to the collection of defunct objects orbiting the Earth. Examples of debris include non-operational satellites, rocket bodies, and fragments generated from explosions, collisions, or faulty payload assembly.

Loading next visibility...
Identifier
22608, 1993-016S
Orbit
LEO
Country
Flag of CISCIS
Related business
Manufacturer
Unknown
Mission
Spacecraft
Bus & Motor
Unknown
Mass
Unknown
Launch date (UTC)
1993-03-26 (33 years ago)
Launch vehicle
Unknown
Launch site
Tyuratam Missile And Space Complex (TTMTR)
Object type
Payload
Rocket body
Debris
Shape & HBR
Unknown shape, 0.3 m
Radar Cross Section
Medium (>0.1 m² and <1 m²)

Expand to show TLE details & history
Last TLE update: 11 hours ago

TLE from 11 hours ago
0 SL-16 DEB
1 22608U 93016S   26036.51132160  .00000003  00000-0  38662-4 0  9995
2 22608  71.0031  68.2368 0129786  22.8674  30.2673 13.84722314660713
Epoch: 2026-02-05T12:16Z
TLE epoch observation values (Epoch: 2026-02-05T12:16:18.186Z)
Latitude
49.92248°
Longitude
132.51483°
Altitude
872.769 km
Speed
7.462 km/s
True Right ascension
06h 09m 00s
True Declination
49° 45' 20"
Sunlit
Object was in full shadow at epoch
Visualization orbit readout
Latitude
Unknown
Longitude
Unknown
Altitude
Unknown
Speed
Unknown
Apparent Right ascension
Unknown
Apparent Declination
Unknown
Sunlit
N/A
Visualization observer readout
Local Sidereal Time
00:59:21
Azimuth
Unknown
Elevation
Unknown
Doppler factor
Unknown
Orbital elements
Apogee altitude
1,040.185 km
Perigee altitude
850.093 km
Semi-major axis
7,323.276 km
Eccentricity
0.01298
Inclination
71.0031°
RAAN
68.2368°
Arg. of periapsis
22.8674°
True anomaly
31.02754°
Mean anomaly
30.2673°
Eccentric anomaly
30.64635°
Mean motion
3.46326 °/min
Orbital period
103.95 mins
BSTAR
0.000038662
Loading maneuver chart data...
Computing Atmospheric mass density...
Loading historical data...
Loading historical data...
Loading historical data...
Loading historical data...
Loading historical data...
Loading historical data...
Loading historical data...

Documentation

Showing up to 5 results
|